Find Starlink 3535

NORAD ID: 51722 Int'l Des: 2022-016 Owner: SPXS Country: US Constellation: starlink operational
LEOCIRCULAR

当前视图

正在加载3D地球...

About Starlink 3535

Starlink 3535 (NORAD 51722) is a starlink constellation satellite (v1.5) launched Feb 21, 2022 by SPXS of US. It operates in LEO, CIRCULAR orbit with a mass of 297.00 kg.

关于 Starlink 3535

正在加载描述...

即将过境

Passes for default location (London). Set your location on the main map for personalized predictions.

高度历史

Loading altitude history...

两行轨道根数

1 51722U 22016J 26160.72121841 .00001133 00000-0 89266-4 0 9992
2 51722 53.1627 275.9204 0000571 18.2700 341.8312 15.08837034237310
Epoch: Jun 9, 2026 • Age: 13 hours

当前状态

高度 543.3 km
速度 7.60 km/s
星下点 41.47°N, 38.04°W
发射日期 Feb 21, 2022
运行时间 4.2 years
类型 internet

技术详情

分类 Payload
质量 297.00 kg
干质量 275.00 kg
总质量 297.00 kg
长度 0.20 m
直径 2.80 m
跨度 9.00 m
形状 Box + pan
制造商 SPXS
平台类型 Starlink
阶段状态 In Orbit
所有者/国家 SPXS/US

Most Searched